Other Public Products
Issued by NWS Grand Forks, ND

Home | Current Version | Previous Version | Text Only | Print | Product List | Glossary Off
Versions: 1 2 3 4 5 6 7 8 9 10 11 12 13 14 15 16 17 18 19 20 21 22 23 24 25 26 27 28 29 30 31 32 33 34 35 36 37 38 39 40 41 42 43 44 45 46 47 48 49 50

000
FPUS83 KFGF 010610
OPUFGF
PRAIRIE TO PINES WEATHER ROUNDUP
NATIONAL WEATHER SERVICE EASTERN NORTH DAKOTA/GRAND FORKS ND
100 AM CDT WED JUL 01 2015

 **SATELLITE DATA USED TO AUGMENT SKY COVER AT AUTOMATED STATIONS**
 *****  WEATHER ACROSS EASTERN NORTH DAKOTA  *****

CITY           SKY/WX    TMP DP  RH WIND       PRES   REMARKS
GRAND FORKS    MOCLDY    61  58  90 CALM      29.91
6HR MIN TEMP:  60; 6HR MAX TEMP:  74;

GRAND FORKS AF MOCLDY    61  59  94 CALM      29.92S
GRAND CITY NWS   N/A     61 N/A N/A SE1         N/A
BUXTON         NOT AVBL
DEVILS LAKE    CLOUDY    63  55  77 SE7       29.91S
6HR MIN TEMP:  63; 6HR MAX TEMP:  68;

FARGO          CLOUDY    66  60  81 CALM      29.91
6HR MIN TEMP:  65; 6HR MAX TEMP:  73;

WAHPETON ARPT  CLOUDY    64  61  88 E3        29.93R
$$

 *****  WEATHER ACROSS CENTRAL AND WESTERN NORTH DAKOTA  *****

CITY           SKY/WX    TMP DP  RH WIND       PRES   REMARKS
JAMESTOWN      LGT RAIN  65  62  90 CALM      29.93S FOG
6HR MIN TEMP:  65; 6HR MAX TEMP:  71; 6HR PCP:  0.06;

BISMARCK       MOCLDY    64  63  96 SE12      29.90F
6HR MIN TEMP:  64; 6HR MAX TEMP:  73; 6HR PCP:  0.15;

MINOT          PTCLDY    64  62  93 SW3       29.90R FOG
6HR MIN TEMP:  63; 6HR MAX TEMP:  69;

MINOT AFB      MOCLDY    64  64 100 NE2       29.90R FOG
6HR MIN TEMP:  64; 6HR MAX TEMP:  69; 6HR PCP:  0.10;

GARRISON         N/A     62  60  93 CALM      29.91R
6HR MIN TEMP:  61; 6HR MAX TEMP:  68; 6HR PCP:  0.10;

WILLISTON      MOCLDY    67  60  78 NE6       29.92
6HR MIN TEMP:  66; 6HR MAX TEMP:  74; 6HR PCP: TRACE;

DICKINSON      CLOUDY    64  62  93 E13       29.90S FOG
6HR MIN TEMP:  64; 6HR MAX TEMP:  74; 6HR PCP:  0.21;

HETTINGER      PTCLDY    63  60  90 E8        29.92
6HR MIN TEMP:  63; 6HR MAX TEMP:  78;

$$

 *****  OTHER OBSERVATIONS NORTHEAST NORTH DAKOTA  *****

CITY           SKY/WX    TMP DP  RH WIND       PRES   REMARKS
WALHALLA       FAIR      61  61 100 MISG      29.93R
LANGDON        FAIR      59  59 100 E6        29.94S
CAVALIER       FAIR      61  59  94 CALM      29.92S
GRAFTON        FAIR      61  61 100 CALM      29.92S
CANDO          FAIR      59  57  94 SE7       29.93R
FORT TOTTEN      N/A     63  58  85 SE6       29.95S
ROLLA          CLOUDY    59  59 100 SW3       29.95R
RUGBY          NOT AVBL
 ***** THE ABOVE OBSERVATIONS ARE NON NWS ARE NOT QUALITY
        CONTROLLED AND MAY MIS-REPORT RAIN FOR SNOW...
$$

 *****  OTHER OBSERVATIONS SOUTHEAST NORTH DAKOTA *****

CITY           SKY/WX    TMP DP  RH WIND       PRES   REMARKS
COOPERSTOWN    NOT AVBL
VALLEY CITY    LGT RAIN  64  64 100 CALM      29.94R
OAKES          LGT RAIN  64  64 100 NE6       29.93R
GWINNER        NOT AVBL
SHEYENNE NWR     N/A     64  62  92 E3        29.95S
BUFFALO        NOT AVBL
WYNDMERE       NOT AVBL
 ***** THE ABOVE OBSERVATIONS ARE NON NWS ARE NOT QUALITY
       CONTROLLED AND MAY MIS-REPORT RAIN FOR SNOW...
$$

  *****  WEATHER ACROSS NORTHERN MINNESOTA  *****

CITY           SKY/WX    TMP DP  RH WIND       PRES   REMARKS
FLAG ISLAND    PTCLDY    68  59  73 S9        29.94S
WARROAD        MOCLDY    61  55  82 CALM      29.95S
ROSEAU         MOCLDY    59  54  82 SE3       29.95R
HALLOCK        MOCLDY    61  57  88 SE5       29.92S
THF RVR FALLS  MOCLDY    61  54  77 CALM      29.94S
6HR MIN TEMP:  61; 6HR MAX TEMP:  73;

HALSTAD        NOT AVBL
FOSSTON        CLOUDY    55  48  76 CALM      29.95S
BAUDETTE       MOCLDY    58  53  84 SE3       29.95
6HR MIN TEMP:  57; 6HR MAX TEMP:  69;

WASKISH        MOCLDY    57  54  88 CALM      29.96S
CROOKSTON      MOCLDY    63  55  77 CALM      29.93S
$$
  *****  WEATHER ACROSS CENTRAL AND WEST MINNESOTA  *****

CITY           SKY/WX    TMP DP  RH WIND       PRES   REMARKS
BEMIDJI        MOCLDY    57  55  93 CALM      29.95S
PARK RAPIDS    CLOUDY    66  56  70 SE3       29.95
6HR MIN TEMP:  66; 6HR MAX TEMP:  75;

WADENA           N/A     64  57  77 CALM      29.95R
DETROIT LAKES  CLOUDY    64  59  82 CALM      29.95R
MOORHEAD       CLOUDY    66  63  88 CALM      29.92S
FERGUS FALLS   CLOUDY    66  63  88 CALM      29.92R
ELBOW LAKE     FAIR      64  62  93 CALM      29.92R
6HR MIN TEMP:  64; 6HR MAX TEMP:  70;

MORRIS MN      CLOUDY    64  63  94 E5        29.91S
STAPLES        CLOUDY    63  55  77 SE5       29.96R
WHEATON        MOCLDY    61  59  94 CALM      29.94R
$$
  *****  WEATHER ELSEWHERE ACROSS MINNESOTA  *****

CITY           SKY/WX    TMP DP  RH WIND       PRES   REMARKS
DULUTH         PTCLDY    50  47  89 E5        29.99
6HR MIN TEMP:  49; 6HR MAX TEMP:  60;

INTRNTL FALLS  CLEAR     48  46  93 CALM      29.97
6HR MIN TEMP:  48; 6HR MAX TEMP:  68;

ELY            CLEAR     48  46  93 CALM      30.00R
CLOQUET        CLEAR     50  46  87 CALM      29.99S
BRAINERD       CLOUDY    62  54  74 SE6       29.96
6HR MIN TEMP:  61; 6HR MAX TEMP:  73;

HIBBING        PTCLDY    48  46  93 CALM      30.00
6HR MIN TEMP:  48; 6HR MAX TEMP:  71;

ALEXANDRIA     CLOUDY    66  58  75 SE8       29.95
6HR MIN TEMP:  66; 6HR MAX TEMP:  72;

SAINT CLOUD    MOCLDY    62  57  83 E3        29.95
6HR MIN TEMP:  62; 6HR MAX TEMP:  73;

MINNEAPOLIS    CLOUDY    63  52  67 NE7       29.96
6HR MIN TEMP:  63; 6HR MAX TEMP:  73;

$$

  *****  WEATHER ACROSS SOUTH DAKOTA  *****

CITY           SKY/WX    TMP DP  RH WIND       PRES   REMARKS
SIOUX FALLS    PTCLDY    66  62  87 E6        29.91S
6HR MIN TEMP:  66; 6HR MAX TEMP:  72; 6HR PCP: TRACE;

BROOKINGS      MOCLDY    64  61  88 SE9       29.94R
WATERTOWN      MOCLDY    65  60  84 SE6       29.90
6HR MIN TEMP:  65; 6HR MAX TEMP:  71;

HURON          MOCLDY    67  67 100 SE3       29.87S FOG
6HR MIN TEMP:  67; 6HR MAX TEMP:  71; 6HR PCP:  0.01;

SISSETON         N/A     61  59  93 CALM      29.91R
ABERDEEN       CLOUDY    66  63  90 SE3       29.90
6HR MIN TEMP:  66; 6HR MAX TEMP:  78; 6HR PCP: TRACE;

MITCHELL       MOCLDY    67  66  97 S5        29.89  FOG
PIERRE         CLOUDY    66  64  93 SE5       29.87
6HR MIN TEMP:  66; 6HR MAX TEMP:  74;

MOBRIDGE       CLOUDY    68  65  90 SE12      29.84
RAPID CITY     PTCLDY    70  67  90 W7        29.92R
6HR MIN TEMP:  69; 6HR MAX TEMP:  84; 6HR PCP:  0.05;

$$

  *****  SOME WEATHER IN NEARBY STATES *****

CITY           SKY/WX    TMP DP  RH WIND       PRES   REMARKS
GLASGOW MT     NOT AVBL
GREAT FALLS MT CLEAR     68  53  58 E7        30.05
6HR MIN TEMP:  68; 6HR MAX TEMP:  91;

CHEYENNE WY    CLOUDY    60  56  86 W7        30.19
6HR MIN TEMP:  60; 6HR MAX TEMP:  80; 6HR PCP:  0.10;

SCOTTSBLUFF NE CLOUDY    73  59  61 NW10      30.02
6HR MIN TEMP:  73; 6HR MAX TEMP:  95;

OMAHA NE       TSTM      70  66  87 S9        29.93R FOG
6HR MIN TEMP:  70; 6HR MAX TEMP:  75; 6HR PCP:  0.09;

DES MOINES IA  CLOUDY    73  64  73 E5        29.91
6HR MIN TEMP:  73; 6HR MAX TEMP:  78;

DAVENPORT IA   MOCLDY    64  61  90 N5        29.91
6HR MIN TEMP:  64; 6HR MAX TEMP:  76;

CHICAGO IL     PTCLDY    57  51  80 N8        29.92
6HR MIN TEMP:  57; 6HR MAX TEMP:  66;

EAU CLAIRE WI  CLEAR     54  48  80 NE6       29.96S
6HR MIN TEMP:  54; 6HR MAX TEMP:  70;

LA CROSSE WI   CLEAR     61  52  72 N6        29.94
6HR MIN TEMP:  61; 6HR MAX TEMP:  75;

$$

  *****  SOME NATIONAL WEATHER *****

CITY           SKY/WX    TMP DP  RH WIND       PRES   REMARKS
LA GUARDIA NY  CLOUDY    74  69  85 S9        29.79



USA.gov is the U.S. government's official web portal to all federal, state and local government web resources and services.